Location: Moscow
(55.7500°N, 37.5830°E)
Time: 16:36:58
(UTC+03:00)

Vanguard 1 Rocket - Pass Details

Date: 05 July 2022
Orbit: 651 x 4224 km, 34.3° (Epoch: 16 August)

Event Time Altitude Azimuth Distance (km) Brightness Sun altitude
Rises 21:56:28 0° 247° (WSW) 6,056 11.8 -4.7°
Reaches altitude 10° 22:02:52 10° 230° (SW) 4,258 10.8 -5.2°
Maximum altitude 22:08:38 16° 197° (SSW) 3,044 9.7 -5.6°
Drops below altitude 10° 22:12:55 10° 161° (SSE) 2,980 9.4 -6.0°
Enters shadow 22:14:01 - 152° (SSE) 3,119 9.4 -6.0°
